MDT,Max TemperatureF,Mean TemperatureF,Min TemperatureF,Max Dew PointF,MeanDew PointF,Min DewpointF,Max Humidity, Mean Humidity, Min Humidity, Max Sea Level PressureIn, Mean Sea Level PressureIn, Min Sea Level PressureIn, Max VisibilityMiles, Mean VisibilityMiles, Min VisibilityMiles, Max Wind SpeedMPH, Mean Wind SpeedMPH, Max Gust SpeedMPH,PrecipitationIn, CloudCover, Events, WindDirDegrees
2012-9-1,75,61,46,42,32,8,76,43,9,30.03,29.91,29.79,10,10,10,16,5,21,T,1,,272
2012-9-2,75,54,33,31,21,7,75,41,7,30.14,30.08,30.05,10,10,10,17,4,22,0.00,0,,178
2012-9-3,78,57,35,31,22,13,64,37,9,30.13,30.07,30.01,10,10,10,18,4,25,0.00,0,,200
2012-9-4,76,57,37,35,31,26,70,43,16,30.13,30.08,30.02,10,10,10,14,4,17,0.00,0,,306
2012-9-5,78,57,35,38,31,22,89,51,12,30.12,30.02,29.90,10,10,10,17,4,23,0.00,0,,220
2012-9-6,76,57,38,37,32,28,76,48,19,30.08,29.99,29.91,10,10,10,14,3,17,0.00,1,,318
2012-9-7,79,59,39,40,31,15,79,45,10,30.23,30.19,30.09,10,10,10,10,2,17,0.00,0,,228
2012-9-8,81,60,38,37,30,17,76,43,10,30.27,30.16,30.02,10,10,10,10,3,14,0.00,0,,127
2012-9-9,81,63,44,42,35,30,65,41,17,30.00,29.90,29.82,10,10,10,25,4,33,0.00,2,,194
2012-9-10,70,54,38,39,31,23,76,47,17,30.00,29.93,29.83,10,7,3,17,4,23,0.00,2,,290
2012-9-11,63,49,34,34,24,6,76,44,11,30.19,30.12,29.98,10,7,2,14,4,21,0.00,3,,280
2012-9-12,70,49,28,27,20,12,75,43,11,30.37,30.30,30.19,10,7,2,12,3,17,0.00,1,,302
2012-9-13,78,54,30,31,23,17,64,38,12,30.44,30.36,30.29,10,8,5,9,2,14,0.00,0,,287
2012-9-14,82,58,34,31,23,11,64,36,7,30.31,30.21,30.09,10,10,3,14,3,23,0.00,0,,138
2012-9-15,79,58,37,33,26,20,50,31,12,30.17,30.11,30.04,10,9,2,16,4,23,0.00,1,,17
2012-9-16,73,59,45,38,32,24,65,41,17,30.20,30.09,30.05,10,6,2,16,6,23,0.00,5,,335
2012-9-17,75,55,35,34,28,20,75,45,14,30.22,30.15,30.10,10,8,4,13,4,17,0.00,2,,323
2012-9-18,78,57,36,32,27,17,64,37,10,30.23,30.16,30.09,10,8,4,12,2,17,0.00,2,,355
2012-9-19,80,57,34,35,27,20,75,43,11,30.24,30.17,30.12,10,9,6,14,3,21,0.00,2,,12
2012-9-20,80,59,37,36,27,18,70,41,11,30.28,30.17,30.08,10,5,2,12,3,14,0.00,7,,297
2012-9-21,78,58,38,36,29,25,70,43,15,30.22,30.12,30.03,6,3,2,9,1,12,0.00,7,,332
2012-9-22,76,57,37,36,30,24,70,43,15,30.13,30.06,30.01,10,6,4,10,3,15,0.00,4,,19
2012-9-23,65,55,44,49,40,33,89,62,34,30.20,30.05,29.94,10,8,2,14,4,20,0.17,5,Rain,295
2012-9-24,68,56,43,48,46,41,100,71,42,30.15,30.08,29.99,10,5,0,12,4,16,0.00,6,Fog,217
2012-9-25,73,60,47,45,43,39,93,62,31,30.01,29.97,29.91,10,8,5,10,3,20,0.00,2,,292
2012-9-26,72,56,39,44,38,29,92,57,22,30.08,30.04,29.99,10,10,8,13,2,15,0.00,0,,219
2012-9-27,74,55,35,39,34,29,89,55,20,30.14,30.08,30.03,10,10,10,12,2,15,0.00,0,,231
2012-9-28,68,52,36,44,37,31,77,55,32,30.10,30.06,30.03,10,10,10,18,2,22,T,3,Rain,326
2012-9-29,75,57,39,44,38,32,89,56,22,30.18,30.12,30.04,10,10,10,13,2,18,0.00,1,,235
2012-9-30,74,56,37,40,32,17,85,49,13,30.30,30.23,30.16,10,10,10,13,3,18,0.00,0,,301